Regional Weather Roundup
Issued by NWS

Home | Current Version | Previous Version | Graphics & Text | Print | Product List | Glossary On
Versions: 1 2 3 4 5 6 7 8 9 10 11 12 13 14 15 16 17 18 19 20 21 22 23 24 25 26 27 28
000
ASUS45 KCYS 190110
RWRWY

WYOMING REGIONAL WEATHER ROUNDUP
NATIONAL WEATHER SERVICE CHEYENNE WY
600 PM MST SUN FEB 18 2018

NOTE:  "FAIR" INDICATES FEW OR NO CLOUDS BELOW 12,000 FEET
WITH NO SIGNIFICANT WEATHER AND/OR OBSTRUCTIONS TO VISIBILITY.

WYZ001-190200-
YELLOWSTONE NATIONAL PARK

CITY           SKY/WX    TMP DP  RH WIND       PRES   REMARKS
LK YELLOWSTONE   N/A     16  13  88 CALM      29.43R
W YELLOWSTONE  NOT AVBL

$$
WYZ002>013-054>058-071-098>099-190200-
NORTHERN WYOMING

CITY           SKY/WX    TMP DP  RH WIND       PRES   REMARKS
JACKSON        MOCLDY    24  14  65 S16       29.45R WCI  11
CODY           FLURRIES   3  -3  76 N10       29.76R WCI -12
GREYBULL       LGT SNOW   8   5  87 NW13      29.77R FOG     WCI  -8
WORLAND        CLOUDY     9   3  77 NW10      29.77R WCI  -5
SHERIDAN       LGT SNOW   6   2  83 NW9       29.87S FOG     WCI  -8
BUFFALO        CLOUDY     4  -2  76 N17       29.76S WCI -16
GILLETTE       LGT SNOW   4   0  83 N18       29.79S FOG     WCI -16
HULETT         LGT SNOW   7   3  85 MISG      29.81S VSB 3/4
NEWCASTLE      LGT SNOW  10   5  79 N15       29.71R VSB 1   WCI  -6

$$
WYZ014>020-022>026-101>103-190200-
CENTRAL WYOMING

CITY           SKY/WX    TMP DP  RH WIND       PRES   REMARKS
BIG PINEY      CLOUDY    23  13  65 N8        29.49F WCI  14
PINEDALE       CLOUDY    23  12  63 NW15      29.48F WCI  10
DUBOIS         NOT AVBL
LANDER         LGT SNOW  13  10  88 NE6       29.61R VSB 1   WCI   4
RIVERTON       LGT SNOW  10   5  80 NE10      29.62R WCI  -4
CASPER         FOG        5   2  87 N15       29.68R VSB 3/4 WCI -13
DOUGLAS        CLOUDY     9   2  73 N16G24    29.71R WCI  -8

$$
WYZ021-027>030-104>119-190200-
SOUTHERN WYOMING

CITY           SKY/WX    TMP DP  RH WIND       PRES   REMARKS
EVANSTON       SNOW      23  21  92 N16       29.49R VSB 1/4 WCI  10
FORT BRIDGER   SNOW      25  25 100 N8        29.54R VSB 1/4 WCI  17
ROCK SPRINGS   CLOUDY    28  17  63 NW12      29.50R WCI  18
DIXON          CLOUDY    43  22  42 S16       29.45S
RAWLINS        MOCLDY    31  21  66 N13       29.45R WCI  21
SARATOGA       CLOUDY    41  21  45 W18G35    29.44S
LARAMIE        FAIR      39  15  37 SW15      29.45S WCI  31
CHEYENNE       CLOUDY    26  25  96 NE18G29   29.53R WCI  13
TORRINGTON     CLOUDY    19  15  84 NE18      29.69R WCI   4
PINE BLUFFS    CLOUDY    30  27  86 NE20      29.58R WCI  18

$$




USA.gov is the U.S. government's official web portal to all federal, state and local government web resources and services.